Regional Weather Roundup
Issued by NWS

Home | Current Version | Previous Version | Text Only | Print | Product List | Glossary Off
Versions: 1 2 3 4 5 6 7 8 9 10 11 12 13 14 15 16 17 18 19 20 21 22 23 24 25 26 27 28 29 30 31 32 33 34 35 36 37 38 39 40 41 42 43 44 45 46 47 48 49 50

714
ASUS45 KPSR 231210
RWRAZ

ARIZONA HOURLY REGIONAL WEATHER ROUNDUP
NATIONAL WEATHER SERVICE PHOENIX AZ
500 AM MST TUE MAY 23 2017

NOTE: FAIR INDICATES FEW OR NO CLOUDS BELOW 12,000 FEET WITH NO
SIGNIFICANT WEATHER AND/OR OBSTRUCTIONS TO VISIBILITY.

AZZ001>003-036-231300-
NORTHWEST ARIZONA

CITY           SKY/WX    TMP DP  RH WIND       PRES   REMARKS
BULLHEAD CITY  CLEAR     75  28  17 NE5       29.86S
KINGMAN        CLEAR     58  25  28 CALM      30.06R
6HR MIN TEMP:  56; 6HR MAX TEMP:  65;

$$

AZZ004>008-015-016-018-231300-
NORTH CENTRAL ARIZONA

CITY           SKY/WX    TMP DP  RH WIND       PRES   REMARKS
GRAND CANYON   PTCLDY    33  26  75 E5        30.26S WCI  29
6HR MIN TEMP:  31; 6HR MAX TEMP:  42;

WILLIAMS       CLEAR     41  25  52 VRB3      30.25R
PRESCOTT       CLEAR     49  28  44 S6        30.15R
6HR MIN TEMP:  49; 6HR MAX TEMP:  66;

FLAGSTAFF      CLEAR     43  25  49 NE8       30.26R
6HR MIN TEMP:  37; 6HR MAX TEMP:  51;

PAYSON         CLEAR     63  19  19 NE10      30.15S
PAGE           CLEAR     60  33  36 E3        30.15R
6HR MIN TEMP:  59; 6HR MAX TEMP:  70;

$$

AZZ009>014-017-231300-
NORTHEAST ARIZONA

CITY           SKY/WX    TMP DP  RH WIND       PRES   REMARKS
WINSLOW        CLEAR     43  23  45 CALM      30.17R
6HR MIN TEMP:  42; 6HR MAX TEMP:  55;

SAINT JOHNS    CLEAR     47  22  37 CALM      30.17R
6HR MIN TEMP:  45; 6HR MAX TEMP:  55;

WINDOW ROCK    CLEAR     35  25  66 CALM      30.23R
6HR MIN TEMP:  33; 6HR MAX TEMP:  47;

SHOW LOW       CLEAR     43  18  36 CALM      30.22S
$$

AZZ540-542>544-546-548-231300-
GREATER PHOENIX AREA

CITY           SKY/WX    TMP DP  RH WIND       PRES   REMARKS
PHOENIX        CLEAR     78  36  21 CALM      29.84R
6HR MIN TEMP:  77; 6HR MAX TEMP:  89;

BUCKEYE        CLEAR     72  25  17 NE8       29.85R
LUKE AFB       CLEAR     74  36  25 N8        29.83S
6HR MIN TEMP:  73; 6HR MAX TEMP:  88;

DEER VALLEY    CLEAR     74  29  19 CALM      29.85S
6HR MIN TEMP:  73; 6HR MAX TEMP:  86;

SCOTTSDALE     CLEAR     74  36  25 CALM      29.87R
6HR MIN TEMP:  73; 6HR MAX TEMP:  86;

MESA-GATEWAY   CLEAR     72  27  18 E8        29.87R
$$

AZZ539-553-231300-
SOUTHWEST MARICOPA COUNTY AND PINAL COUNTY

CITY           SKY/WX    TMP DP  RH WIND       PRES   REMARKS
CASA GRANDE    CLEAR     71  30  21 E3        29.87R
6HR MIN TEMP:  71; 6HR MAX TEMP:  85;

GILA BEND      FAIR      73  22  15 SE8       29.83R
6HR MIN TEMP:  73; 6HR MAX TEMP:  87;

$$

AZZ503-504-507>509-231300-
SOUTHEAST ARIZONA

CITY           SKY/WX    TMP DP  RH WIND       PRES   REMARKS
TUCSON         CLEAR     68  24  19 SE6       29.97R
6HR MIN TEMP:  68; 6HR MAX TEMP:  79;

DAVIS-MONTHAN  CLEAR     65  22  19 SE8       29.96R
6HR MIN TEMP:  65; 6HR MAX TEMP:  75;

NOGALES        CLEAR     57  25  29 CALM      30.05R
6HR MIN TEMP:  57; 6HR MAX TEMP:  72;

SIERRA VISTA   CLEAR     67  19  16 W10       30.10S
6HR MIN TEMP:  65; 6HR MAX TEMP:  71;

DOUGLAS        CLEAR     52  16  24 N6        30.06R
6HR MIN TEMP:  52; 6HR MAX TEMP:  67;

SAFFORD        CLEAR     60  21  22 CALM      29.97R
6HR MIN TEMP:  59; 6HR MAX TEMP:  75;

$$

AZZ532-231300-
SOUTHWEST ARIZONA

CITY           SKY/WX    TMP DP  RH WIND       PRES   REMARKS
YUMA           CLEAR     77  46  33 CALM      29.79S
6HR MIN TEMP:  75; 6HR MAX TEMP:  86;

$$

CAZ041-043-047-048-061-525>527-560>570-231300-
SOUTHERN CALIFORNIA

CITY           SKY/WX    TMP DP  RH WIND       PRES   REMARKS
DOWNTOWN L.A.  CLEAR     60  56  86 CALM      29.93S
6HR MIN TEMP:  60; 6HR MAX TEMP:  62;

L.A. AIRPORT   MOCLDY    59  56  89 CALM      29.94S
6HR MIN TEMP:  59; 6HR MAX TEMP:  60;

SAN DIEGO      CLOUDY    63  59  87 CALM      29.95S
6HR MIN TEMP:  62; 6HR MAX TEMP:  63;

BURBANK        CLEAR     61  54  77 CALM      29.93F
6HR MIN TEMP:  61; 6HR MAX TEMP:  66;

ONTARIO        MOCLDY    64  56  75 CALM      29.94S
6HR MIN TEMP:  62; 6HR MAX TEMP:  71;

RIVERSIDE      CLEAR     62  56  80 CALM      29.94S
6HR MIN TEMP:  62; 6HR MAX TEMP:  71;

PALM SPRINGS   CLEAR     84  48  28 N15G21    29.84R
6HR MIN TEMP:  80; 6HR MAX TEMP:  93;

EL CENTRO NAS  CLEAR     77  36  22 W7        29.79S
6HR MIN TEMP:  75; 6HR MAX TEMP:  88;

IMPERIAL       CLEAR     77  42  28 W7        29.77S
6HR MIN TEMP:  74; 6HR MAX TEMP:  88;

BLYTHE         CLEAR     74  34  23 N5        29.81S
6HR MIN TEMP:  74; 6HR MAX TEMP:  89;

NEEDLES        CLEAR     79  28  15 SW8       29.87R
6HR MIN TEMP:  77; 6HR MAX TEMP:  90;

$$

NVZ020-UTZ003-231300-
SOUTHERN NEVADA-UTAH

CITY           SKY/WX    TMP DP  RH WIND       PRES   REMARKS
LAS VEGAS      CLEAR     75  32  20 S5        29.97R
6HR MIN TEMP:  75; 6HR MAX TEMP:  83;

SALT LAKE CITY PTCLDY    57  44  62 SE10      30.17S
6HR MIN TEMP:  56; 6HR MAX TEMP:  63;

$$

NMZ009-TXZ055-231300-
NEW MEXICO-WEST TEXAS

CITY           SKY/WX    TMP DP  RH WIND       PRES   REMARKS
ALBUQUERQUE    PTCLDY    55  43  63 NE12      30.12R
6HR MIN TEMP:  55; 6HR MAX TEMP:  66;

EL PASO        PTCLDY    66  21  18 N7        30.00R
6HR MIN TEMP:  65; 6HR MAX TEMP:  76;

$$


........................KEY........................
SKY/WX - SKY CONDITION/WEATHER
TMP    - TEMPERATURE IN FAHRENHEIT
DP     - DEW POINT IN FAHRENHEIT
RH     - RELATIVE HUMIDITY IN PERCENT
WIND   - DIRECTION AND SPEED IN MILES PER HOUR (MPH)
VRB    - VARIABLE WIND DIRECTION
PRES   - MEAN SEA LEVEL PRESSURE IN INCHES OF MERCURY
         F - FALLING PRESSURE   R - RISING PRESSURE
         S - STEADY PRESSURE
VSB    - VISIBILITY IN MILES
HX     - HEAT INDEX IN FAHRENHEIT
WCI    - WIND CHILL INDEX IN FAHRENHEIT
TC     - TEMPERATURE IN CELSIUS WHICH IS ALSO KNOWN AS
         TEMPERATURE IN CENTIGRADE
AFB    - AIR FORCE BASE
         LUKE AFB IS LUKE AIR FORCE BASE
         DAVIS-MONTHAN IS DAVIS-MONTHAN AIR FORCE BASE
NAS    - NAVAL AIR STATION
         EL CENTRO NAS IS EL CENTRO NAVAL AIR STATION
N/A    - NOT AVAILABLE





USA.gov is the U.S. government's official web portal to all federal, state and local government web resources and services.